This is the latest recevied weather packets stored in our database for station/object W6MAF. If no packets are shown the sender has not sent any weather packets the latest 10 day(s).
| Time | Temp. | Humidity | Pressure | Rain* | Wind** | Luminosity | Snow |
|---|---|---|---|---|---|---|---|
| 1777991102 | 7.78° C | 95% | - | 0 mm | 5.36 m/s, 232° | - | - |
| 1777990805 | 7.78° C | 97% | - | 0 mm | 4.92 m/s, 225° | - | - |
| 1777990507 | 7.22° C | 98% | - | 0 mm | 4.47 m/s, 195° | - | - |
| 1777989912 | 7.22° C | 99% | - | 0 mm | 5.36 m/s, 236° | - | - |
| 1777989611 | 6.67° C | 99% | - | 0 mm | 6.26 m/s, 208° | - | - |
| 1777989348 | 6.67° C | 100% | - | 0 mm | 4.47 m/s, 203° | - | - |
| 1777989313 | 6.67° C | 100% | - | 0 mm | 4.47 m/s, 203° | - | - |
| 1777989015 | 6.67° C | 100% | - | 0 mm | 6.71 m/s, 231° | - | - |
| 1777988718 | 6.11° C | 100% | - | 0 mm | 4.02 m/s, 226° | - | - |
| 1777988420 | 6.11° C | 99% | - | 0 mm | 5.36 m/s, 239° | - | - |
| 1777987822 | 6.11° C | 99% | - | 0 mm | 5.36 m/s, 225° | - | - |
| 1777987524 | 6.11° C | 99% | - | 0 mm | 4.02 m/s, 218° | - | - |
| 1777986997 | 6.11° C | 99% | - | 0 mm | 4.47 m/s, 210° | - | - |
| 1777986929 | 6.11° C | 99% | - | 0 mm | 4.47 m/s, 210° | - | - |
| 1777986631 | 6.11° C | 98% | - | 0 mm | 4.02 m/s, 217° | - | - |
| 1777986334 | 6.11° C | 98% | - | 0 mm | 4.02 m/s, 207° | - | - |
| 1777986032 | 6.67° C | 98% | - | 0 mm | 4.47 m/s, 226° | - | - |
| 1777985735 | 6.67° C | 98% | - | 0 mm | 4.02 m/s, 240° | - | - |
| 1777985437 | 6.67° C | 98% | - | 0 mm | 2.24 m/s, 231° | - | - |
| 1777985170 | 6.67° C | 99% | - | 0 mm | 3.13 m/s, 222° | - | - |
| 1777985139 | 6.67° C | 99% | - | 0 mm | 3.13 m/s, 222° | - | - |
| 1777984842 | 6.67° C | 99% | - | 0 mm | 3.13 m/s, 193° | - | - |
| 1777984615 | 6.67° C | 99% | - | 0 mm | 4.47 m/s, 201° | - | - |
| 1777984544 | 6.67° C | 99% | - | 0 mm | 4.47 m/s, 201° | - | - |
| 1777984310 | 6.67° C | 100% | - | 0 mm | 3.58 m/s, 194° | - | - |
* Rain latest hour (hover to see other rain measurements)
** Current wind speed in m/s (hover to see current wind gust speed)